This is the latest recevied weather packets stored in our database for station/object N2ZVN. If no packets are shown the sender has not sent any weather packets the latest 10 day(s).
| Time | Temp. | Humidity | Pressure | Rain* | Wind** | Luminosity | Snow |
|---|---|---|---|---|---|---|---|
| 1777469548 | 10.56° C | 73% | 1012.3 hPa | 0 mm | - | 58 W/m² | - |
| 1777469248 | 10.56° C | 74% | 1012 hPa | 0 mm | - | 68 W/m² | - |
| 1777468943 | 10.56° C | 74% | 1012.1 hPa | 0 mm | - | 75 W/m² | - |
| 1777468639 | 10.56° C | 74% | 1012.5 hPa | 0 mm | - | 62 W/m² | - |
| 1777468336 | 10.56° C | 75% | 1012.9 hPa | 0 mm | - | 53 W/m² | - |
| 1777468032 | 10.56° C | 75% | 1013.3 hPa | 0 mm | - | 66 W/m² | - |
| 1777467729 | 10.56° C | 75% | 1012.9 hPa | 0 mm | - | 73 W/m² | - |
| 1777467424 | 10.56° C | 74% | 1013.1 hPa | 0 mm | - | 69 W/m² | - |
| 1777467119 | 10.56° C | 75% | 1013.2 hPa | 0 mm | - | 57 W/m² | - |
| 1777466817 | 10.56° C | 75% | 1013.4 hPa | 0 mm | - | 68 W/m² | - |
| 1777466515 | 10.56° C | 76% | 1013.4 hPa | 0 mm | - | 82 W/m² | - |
| 1777466210 | 10° C | 77% | 1013.3 hPa | 0 mm | - | 90 W/m² | - |
| 1777465907 | 10° C | 76% | 1013.1 hPa | 0 mm | - | 84 W/m² | - |
| 1777465603 | 10° C | 77% | 1013.6 hPa | 0 mm | - | 53 W/m² | - |
| 1777465298 | 10° C | 76% | 1013.6 hPa | 0 mm | - | 36 W/m² | - |
| 1777464993 | 10° C | 77% | 1013.5 hPa | 0 mm | - | 54 W/m² | - |
| 1777464688 | 10° C | 77% | 1013.3 hPa | 0 mm | - | 53 W/m² | - |
| 1777464384 | 10° C | 77% | 1013.5 hPa | 0 mm | - | 48 W/m² | - |
| 1777464075 | 10° C | 78% | 1013.5 hPa | 0 mm | - | 53 W/m² | - |
| 1777463774 | 10° C | 78% | 1013.4 hPa | 0 mm | - | 41 W/m² | - |
| 1777463470 | 10° C | 79% | 1013.3 hPa | 0 mm | - | 36 W/m² | - |
| 1777463165 | 10° C | 79% | 1013.5 hPa | 0 mm | - | 29 W/m² | - |
| 1777462862 | 10° C | 79% | 1013.6 hPa | 0 mm | - | 16 W/m² | - |
| 1777462557 | 10° C | 80% | 1013.4 hPa | 0 mm | - | 20 W/m² | - |
| 1777462254 | 9.44° C | 82% | 1013.5 hPa | 0 mm | - | 25 W/m² | - |
* Rain latest hour (hover to see other rain measurements)
** Current wind speed in m/s (hover to see current wind gust speed)